Regional Weather Roundup
Issued by NWS

Home | Current Version | Previous Version | Graphics & Text | Print | Product List | Glossary On
Versions: 1 2 3 4 5 6 7 8 9 10 11 12 13 14 15 16 17 18 19 20 21 22 23 24 25 26 27
000
ASUS45 KPSR 140910
RWRAZ

ARIZONA HOURLY REGIONAL WEATHER ROUNDUP
NATIONAL WEATHER SERVICE PHOENIX AZ
200 AM MST THU DEC 14 2017

NOTE: FAIR INDICATES FEW OR NO CLOUDS BELOW 12,000 FEET WITH NO
SIGNIFICANT WEATHER AND/OR OBSTRUCTIONS TO VISIBILITY.

AZZ001>003-036-141000-
NORTHWEST ARIZONA

CITY           SKY/WX    TMP DP  RH WIND       PRES   REMARKS
BULLHEAD CITY  CLEAR     50   9  18 N5        29.95S
KINGMAN        PTCLDY    30   3  31 CALM      30.00S
$$

AZZ004>008-015-016-018-141000-
NORTH CENTRAL ARIZONA

CITY           SKY/WX    TMP DP  RH WIND       PRES   REMARKS
GRAND CANYON   MOCLDY    21   2  43 NE6       30.06S WCI  13
WILLIAMS       CLOUDY    27   1  33 S6        30.04R WCI  20
PRESCOTT       PTCLDY    31   6  35 S6        30.01S WCI  25
FLAGSTAFF      MOCLDY    31   1  28 CALM      30.04F
PAYSON         CLEAR     41  -2  16 CALM      30.01F
PAGE           CLOUDY    39  15  37 SW5       30.03S
$$

AZZ009>014-017-141000-
NORTHEAST ARIZONA

CITY           SKY/WX    TMP DP  RH WIND       PRES   REMARKS
WINSLOW        MOCLDY    26  -3  28 CALM      30.01S
SAINT JOHNS    PTCLDY    16  -4  41 CALM      30.01F
WINDOW ROCK    MOCLDY    22  -1  36 CALM      30.04R
SHOW LOW       PTCLDY    34   3  27 S12       30.05F WCI  25
$$

AZZ540-542>544-546-548-141000-
GREATER PHOENIX AREA

CITY           SKY/WX    TMP DP  RH WIND       PRES   REMARKS
PHOENIX        CLEAR     50  23  34 E7        29.91S
BUCKEYE        CLEAR     41   5  22 E8        29.91F
LUKE AFB       CLEAR     43  17  35 NE5       29.90S
DEER VALLEY    CLEAR     48   5  17 CALM      29.91S
SCOTTSDALE     CLEAR     49  18  29 CALM      29.93S
MESA-GATEWAY   CLEAR     43   9  24 E6        29.93S
$$

AZZ539-553-141000-
SOUTHWEST MARICOPA COUNTY AND PINAL COUNTY

CITY           SKY/WX    TMP DP  RH WIND       PRES   REMARKS
CASA GRANDE    NOT AVBL
$$

AZZ503-504-507>509-141000-
SOUTHEAST ARIZONA

CITY           SKY/WX    TMP DP  RH WIND       PRES   REMARKS
TUCSON         CLEAR     48  23  37 S7        29.98F
DAVIS-MONTHAN  CLEAR     46  22  39 SE8       29.96S
NOGALES        CLEAR     44  26  49 CALM      30.02S
DOUGLAS        CLEAR     41  27  57 NE3       30.02R
SAFFORD        CLEAR     35  11  36 SE5       29.97S WCI  31
$$

AZZ532-141000-
SOUTHWEST ARIZONA

CITY           SKY/WX    TMP DP  RH WIND       PRES   REMARKS
YUMA           CLEAR     49  22  34 CALM      29.90F
$$

CAZ041-043-047-048-061-525>527-560>570-141000-
SOUTHERN CALIFORNIA

CITY           SKY/WX    TMP DP  RH WIND       PRES   REMARKS
DOWNTOWN L.A.  CLEAR     55  31  39 CALM      29.95F
L.A. AIRPORT   PTCLDY    56  37  49 E7        29.96S
SAN DIEGO      PTCLDY    54  44  69 CALM      29.98F
BURBANK        CLEAR     49  23  36 N3        29.96S
ONTARIO        PTCLDY    53  20  27 CALM      29.96F
RIVERSIDE      CLEAR     51  22  31 NE7       29.97F
PALM SPRINGS   CLEAR     53  18  25 SW3       29.92F
EL CENTRO NAS  CLEAR     44  13  28 W3        29.92F
IMPERIAL       CLEAR     44  25  47 W5        29.90F
BLYTHE         CLEAR     43   3  19 NW3       29.92S
NEEDLES        CLEAR     48   0  13 CALM      29.94S
$$

NVZ020-UTZ003-141000-
SOUTHERN NEVADA-UTAH

CITY           SKY/WX    TMP DP  RH WIND       PRES   REMARKS
LAS VEGAS      PTCLDY    50   8  18 SW3       30.02R
SALT LAKE CITY PTCLDY    26  24  92 N6        30.31R FOG     WCI  19
$$

NMZ009-TXZ055-141000-
NEW MEXICO-WEST TEXAS

CITY           SKY/WX    TMP DP  RH WIND       PRES   REMARKS
ALBUQUERQUE    CLOUDY    30   7  37 CALM      30.00S
EL PASO        CLEAR     43  31  62 SE5       29.97S
$$


........................KEY........................
SKY/WX - SKY CONDITION/WEATHER
TMP    - TEMPERATURE IN FAHRENHEIT
DP     - DEW POINT IN FAHRENHEIT
RH     - RELATIVE HUMIDITY IN PERCENT
WIND   - DIRECTION AND SPEED IN MILES PER HOUR (MPH)
VRB    - VARIABLE WIND DIRECTION
PRES   - MEAN SEA LEVEL PRESSURE IN INCHES OF MERCURY
         F - FALLING PRESSURE   R - RISING PRESSURE
         S - STEADY PRESSURE
VSB    - VISIBILITY IN MILES
HX     - HEAT INDEX IN FAHRENHEIT
WCI    - WIND CHILL INDEX IN FAHRENHEIT
TC     - TEMPERATURE IN CELSIUS WHICH IS ALSO KNOWN AS
         TEMPERATURE IN CENTIGRADE
AFB    - AIR FORCE BASE
         LUKE AFB IS LUKE AIR FORCE BASE
         DAVIS-MONTHAN IS DAVIS-MONTHAN AIR FORCE BASE
NAS    - NAVAL AIR STATION
         EL CENTRO NAS IS EL CENTRO NAVAL AIR STATION
N/A    - NOT AVAILABLE





USA.gov is the U.S. government's official web portal to all federal, state and local government web resources and services.